Home   Weather   Bischofshofen   Past weeks

Flag for Austria Past Weather in Bischofshofen, Salzburg, Austria — Yesterday and Last 2 Weeks

Now
21 °F

Sunny.


Feels Like: 15 °F
Forecast: 15 / 39 °F
Wind: 5 mph from Northwest

Location: Salzburg-Flughafen

Current Time: Jan 20, 2017 at 1:21:11 pm

Latest Report: Jan 20, 2017 at 12:50 pm


Visibility: 4 mi

Pressure: 30.42 "Hg (28.37 "Hg at 545m altitude)

Humidity: 80%

Dew Point: 16 °F

Location of BischofshofenLocation

Past Weather in Bischofshofen — Graph

°F

Bischofshofen Temperature Yesterday

Maximum temperature yesterday: 25 °F (at 2:20 pm)
Minimum temperature yesterday: 1 °F (at 6:20 am)
Average temperature yesterday: 11 °F

High & Low Weather Summary for the Past Weeks

 TemperatureHumidityPressure
High41 °F (Jan 11, 10:50 pm)100% (Jan 8, 9:20 am)30.66 "Hg (Jan 8, 9:20 am)
Low0 °F (Jan 7, 12:20 am)41% (Jan 13, 12:20 pm)29.36 "Hg (Jan 13, 3:50 am)
Average23 °F85%30.18 "Hg
* Reported Jan 5 11:20 am — Jan 20 11:50 am, Bischofshofen, Weather by CustomWeather, © 2017

Note: Actual official high and low records may vary slightly from our data, if they occured in-between our weather recording intervals... More about our weather records

Advertising

Bischofshofen Weather History for the Previous 24 Hours

Scroll right to see more
 ConditionsComfort  
Time TempWeatherWind HumidityBarometerVisibility
11:50 am
Fri, Jan 20
18 °FLight freezing rain. Sunny.1 mph86%30.45 "Hg3 mi
11:20 am16 °FLight freezing rain. Passing clouds.1 mph93%30.45 "Hg3 mi
10:50 am14 °FLight freezing rain. Passing clouds.2 mph85%30.45 "Hg3 mi
10:20 am12 °FLight freezing rain. Passing clouds.2 mph85%30.45 "Hg3 mi
9:50 am9 °FPassing clouds.3 mph92%30.45 "Hg4 mi
9:20 am7 °FPassing clouds.3 mph85%30.45 "Hg4 mi
8:50 am3 °FPassing clouds.2 mph85%30.45 "Hg4 mi
8:20 am1 °FPassing clouds.2 mph85%30.45 "Hg4 mi
7:50 am1 °FPassing clouds.3 mph92%30.45 "Hg5 mi
7:20 am1 °FPassing clouds.3 mph92%30.45 "Hg4 mi
6:50 am1 °FPassing clouds.2 mph85%30.45 "Hg6 mi
6:20 am1 °FPassing clouds.1 mph85%30.45 "Hg6 mi
5:50 am1 °FPassing clouds.1 mph85%30.45 "Hg6 mi
5:20 am1 °FPassing clouds.1 mph92%30.45 "Hg5 mi
4:50 am3 °FPassing clouds.1 mph92%30.45 "Hg6 mi
4:20 am3 °FPassing clouds.2 mph85%30.45 "Hg6 mi
3:50 am3 °FPassing clouds.2 mph85%30.45 "Hg5 mi
3:20 am3 °FPassing clouds.3 mph85%30.45 "Hg5 mi
2:50 am3 °FPassing clouds.3 mph85%30.45 "HgN/A
2:20 am3 °FPassing clouds.2 mph85%30.48 "Hg6 mi
1:50 am3 °FPassing clouds.2 mph92%30.48 "Hg6 mi
1:20 am5 °FFrigid.1 mph85%30.45 "Hg5 mi
12:50 am5 °FPassing clouds.2 mph92%30.45 "Hg5 mi
12:20 am5 °FPassing clouds.1 mph85%30.48 "Hg4 mi
11:50 pm
Thu, Jan 19
7 °FLight freezing rain. Overcast.1 mph92%30.48 "Hg3 mi
11:20 pm5 °FFrigid.2 mph92%30.48 "Hg5 mi
10:50 pm7 °FClear.1 mph92%30.48 "Hg4 mi
10:20 pm7 °FClear.5 mph92%30.48 "Hg4 mi
9:50 pm7 °FClear.2 mph92%30.48 "Hg4 mi
9:20 pm7 °FClear.3 mph85%30.48 "Hg4 mi
8:50 pm9 °FClear.2 mph92%30.48 "Hg4 mi
8:20 pm10 °FClear.1 mph85%30.48 "Hg4 mi
7:50 pm12 °FFog.1 mph92%30.48 "Hg4 mi
7:20 pm12 °FFog.3 mph92%30.48 "Hg5 mi
6:50 pm12 °FClear.5 mph92%30.48 "Hg5 mi
6:20 pm14 °FClear.5 mph92%30.48 "Hg5 mi
5:50 pm14 °FClear.5 mph92%30.48 "Hg5 mi
5:20 pm16 °FClear.1 mph86%30.48 "Hg5 mi
4:50 pm16 °FClear.1 mph86%30.45 "Hg10 mi
4:20 pm23 °FSunny.2 mph74%30.45 "Hg10 mi
3:50 pm21 °FSunny.2 mph74%30.45 "Hg10 mi
3:20 pm23 °FSunny.2 mph68%30.45 "Hg10 mi
2:50 pm23 °FSunny.1 mph68%30.48 "Hg10 mi
2:20 pm25 °FSunny.3 mph63%30.48 "Hg10 mi
1:50 pm23 °FSunny.3 mph68%30.48 "Hg10 mi
1:20 pm21 °FPassing clouds.3 mph74%30.48 "HgN/A
Weather by CustomWeather, © 2017

See weather overviewHow to use our weather pages